Latest Weather Observations for Dennes Point

IDT60801

Issued at 4:31 pm EDT Monday 30 March 2015 (issued every 30 minutes, with the page automatically refreshed every 10 minutes)

About weather observations | Map of weather stations | Latest weather observations for TAS | Other Formats
Station Details ID: 094255 Name: DENNES POINT Lat: -43.06 Lon: 147.36 Height: 5.67 m
Data from the previous 72 hours. | See also: Recent months at Dennes Point
Date/Time
EDT
Temp
°C
App
Temp
°C
Dew
Point
Rel
Hum
%
Delta-T
°C
Wind Press
QNH
hPa
Press
MSL
hPa
Rain
since 9 am
mm
Dir
 
Spd
km/h
Gust
km/h
Spd
kts
Gust
kts
30/04:30pm 19.9 16.5 11.4 58 4.7 SW 20 26 11 14 1018.4 1018.4 0.0
30/04:00pm 21.3 19.2 12.4 57 5.0 SSW 15 22 8 12 1018.4 1018.4 0.0
30/03:30pm 21.2 19.4 10.7 51 5.7 WSW 11 15 6 8 1018.2 1018.2 0.0
30/03:00pm 20.6 19.5 10.7 53 5.4 WSW 7 13 4 7 1018.0 1018.0 0.0
30/02:30pm 21.1 18.3 11.4 54 5.4 W 17 20 9 11 1017.8 1017.8 0.0
30/02:00pm 20.2 18.3 10.6 54 5.2 WSW 11 15 6 8 1017.8 1017.8 0.0
30/01:30pm 19.1 18.3 11.2 60 4.3 ESE 6 11 3 6 1017.9 1017.9 0.0
30/01:00pm 18.3 16.8 11.8 66 3.6 E 11 13 6 7 1018.0 1018.0 0.0
30/12:30pm 18.2 17.1 12.0 67 3.4 E 9 11 5 6 1018.4 1018.4 0.0
30/12:00pm 17.8 17.1 11.4 66 3.5 NE 6 6 3 3 1018.6 1018.6 0.0
30/11:30am 18.1 17.6 11.9 67 3.4 ENE 6 7 3 4 1018.6 1018.6 0.0
30/11:00am 17.9 17.3 11.7 67 3.4 E 6 9 3 5 1018.8 1018.8 0.0
30/10:30am 16.8 15.8 11.1 69 3.1 NE 7 9 4 5 1018.6 1018.6 0.0
30/10:00am 16.0 14.2 9.4 65 3.4 NNE 9 15 5 8 1018.4 1018.4 0.0
30/09:30am 16.7 15.5 9.6 63 3.7 W 6 7 3 4 1018.1 1018.1 0.0
30/09:00am 16.1 13.0 8.8 62 3.7 WNW 15 24 8 13 1017.7 1017.7 1.4
30/08:30am 15.4 12.6 8.4 63 3.5 WNW 13 22 7 12 1017.5 1017.5 1.4
30/08:00am 14.5 12.1 8.7 68 2.9 WSW 11 22 6 12 1017.4 1017.4 1.4
30/07:30am 12.1 11.3 9.7 85 1.2 SSW 4 13 2 7 1017.2 1017.2 1.4
30/07:00am 11.5 10.5 10.2 92 0.7 W 6 7 3 4 1017.1 1017.1 1.4
30/06:30am 12.1 12.4 10.8 92 0.7 CALM 0 0 0 0 1016.8 1016.8 1.4
30/06:00am 10.9 10.1 9.8 93 0.6 WSW 4 9 2 5 1016.7 1016.7 1.4
30/05:30am 10.9 9.8 9.8 93 0.6 SSW 6 7 3 4 1016.6 1016.6 1.4
30/05:00am 11.3 11.0 10.2 93 0.6 S 2 7 1 4 1016.5 1016.5 1.4
30/04:30am 10.6 9.2 9.5 93 0.6 SSW 7 11 4 6 1016.7 1016.7 1.4
30/04:00am 11.0 9.2 9.6 91 0.7 SSW 9 9 5 5 1016.8 1016.8 1.4
30/03:30am 11.6 10.0 10.3 92 0.7 SSW 9 11 5 6 1016.7 1016.7 1.4
30/03:00am 12.3 11.4 10.7 90 0.8 SSW 6 9 3 5 1017.0 1017.0 1.4
30/02:30am 13.0 12.6 11.2 89 0.9 N 4 6 2 3 1017.0 1017.0 1.4
30/02:00am 13.2 11.6 11.6 90 0.8 NE 11 13 6 7 1017.1 1017.1 1.4
30/01:30am 13.0 11.4 11.6 91 0.7 ENE 11 13 6 7 1017.2 1017.2 1.4
30/01:00am 13.3 12.4 11.5 89 1.0 N 7 11 4 6 1017.4 1017.4 1.4
30/12:30am 12.1 11.7 9.8 86 1.2 NW 2 6 1 3 1017.5 1017.5 1.4
30/12:00am 12.0 11.9 9.6 85 1.2 CALM 0 0 0 0 1017.7 1017.7 1.4
 
Date/Time
EDT
Temp
°C
App
Temp
°C
Dew
Point
Rel
Hum
%
Delta-T
°C
Wind Press
QNH
hPa
Press
MSL
hPa
Rain
since 9 am
mm
Dir
 
Spd
km/h
Gust
km/h
Spd
kts
Gust
kts
29/11:30pm 11.6 10.2 8.8 83 1.4 SW 6 9 3 5 1018.0 1018.0 1.4
29/11:00pm 13.1 12.5 8.8 75 2.2 SSW 2 7 1 4 1018.0 1018.0 1.4
29/10:30pm 12.5 11.9 10.4 87 1.1 E 4 9 2 5 1018.2 1018.2 1.4
29/10:00pm 12.7 11.7 10.9 89 0.9 ENE 7 9 4 5 1018.2 1018.2 1.4
29/09:30pm 12.5 12.4 10.7 89 0.9 ESE 2 6 1 3 1018.1 1018.1 1.4
29/09:00pm 12.7 12.2 10.6 87 1.1 NNW 4 7 2 4 1018.0 1018.0 1.4
29/08:30pm 13.2 12.7 10.9 86 1.2 NNW 4 7 2 4 1017.6 1017.6 1.4
29/08:00pm 13.3 12.4 10.7 84 1.4 N 6 7 3 4 1017.4 1017.4 1.4
29/07:30pm 13.0 11.9 10.5 85 1.3 NE 7 9 4 5 1017.0 1017.0 1.4
29/07:00pm 13.3 12.2 10.8 85 1.3 NNE 7 7 4 4 1016.8 1016.8 1.4
29/06:30pm 13.3 12.8 10.7 84 1.4 NNE 4 6 2 3 1016.4 1016.4 1.4
29/06:00pm 13.2 12.7 10.6 84 1.4 NE 4 6 2 3 1016.2 1016.2 1.4
29/05:30pm 13.3 13.2 10.7 84 1.4 ENE 2 6 1 3 1016.0 1016.0 1.4
29/05:00pm 13.2 12.2 10.9 86 1.2 E 7 9 4 5 1015.9 1015.8 1.4
29/04:30pm 13.1 12.3 11.0 87 1.1 E 6 7 3 4 1015.8 1015.7 1.4
29/04:00pm 13.2 12.9 11.3 88 1.0 E 4 7 2 4 1015.7 1015.6 1.4
29/03:30pm 13.1 12.2 11.2 88 1.0 SSE 7 11 4 6 1015.6 1015.5 1.4
29/03:00pm 13.4 12.7 12.0 91 0.8 SSE 7 11 4 6 1015.5 1015.4 1.4
29/02:30pm 12.7 12.0 11.3 91 0.7 SSE 6 9 3 5 1015.5 1015.4 1.4
29/02:00pm 12.8 11.6 11.5 92 0.7 SSW 9 15 5 8 1015.5 1015.4 1.2
29/01:30pm 12.6 11.2 11.0 90 0.8 S 9 15 5 8 1015.2 1015.1 0.6
29/01:00pm 14.0 12.5 11.9 87 1.1 SSE 11 19 6 10 1015.0 1014.9 0.0
29/12:30pm 16.5 14.6 10.6 68 3.1 W 11 17 6 9 1014.3 1014.2 0.0
29/12:00pm 16.2 13.9 10.5 69 3.0 NNW 13 22 7 12 1014.0 1013.9 0.0
29/11:30am 15.8 11.8 10.3 70 2.9 N 22 30 12 16 1014.0 1013.9 0.0
29/11:00am 15.6 11.5 10.2 70 2.8 N 22 30 12 16 1014.1 1014.0 0.0
29/10:30am 15.4 11.9 10.2 71 2.7 N 19 26 10 14 1014.1 1014.0 0.0
29/10:00am 15.0 12.0 9.1 68 3.0 NNW 15 19 8 10 1014.1 1014.0 0.0
29/09:30am 14.9 10.9 9.1 68 3.0 NNW 20 26 11 14 1014.0 1013.9 0.0
29/09:00am 14.8 9.7 9.2 69 2.9 NNW 26 33 14 18 1013.9 1013.8 0.0
29/08:30am 14.6 9.5 9.2 70 2.8 NNW 26 35 14 19 1013.7 1013.6 0.0
29/08:00am 14.7 9.8 8.4 66 3.2 NW 24 33 13 18 1013.4 1013.3 0.0
29/07:30am 14.2 10.0 8.4 68 2.9 NW 20 28 11 15 1013.6 1013.5 0.0
29/07:00am 14.5 8.6 7.5 63 3.5 WNW 28 43 15 23 1013.4 1013.3 0.0
29/06:30am 14.2 9.1 7.7 65 3.2 WNW 24 37 13 20 1013.1 1013.0 0.0
29/06:00am 13.3 9.3 8.2 71 2.5 NW 19 26 10 14 1013.2 1013.1 0.0
29/05:30am 12.6 8.9 7.9 73 2.3 NNW 17 24 9 13 1013.5 1013.4 0.0
29/05:00am 13.0 9.0 9.1 77 2.0 NNW 20 28 11 15 1013.4 1013.3 0.0
29/04:30am 12.6 9.5 8.9 78 1.9 N 15 20 8 11 1013.6 1013.5 0.0
29/04:00am 12.8 11.1 8.5 75 2.1 NNW 7 11 4 6 1014.5 1014.4 0.0
29/03:30am 12.6 9.0 8.3 75 2.1 NNW 17 22 9 12 1014.4 1014.3 0.0
29/03:00am 12.4 8.3 7.7 73 2.3 NW 19 26 10 14 1014.5 1014.4 0.0
29/02:30am 10.2 8.7 8.5 89 0.8 SSW 6 9 3 5 1015.0 1014.9 0.0
29/02:00am 9.9 8.2 8.2 89 0.8 SSW 7 11 4 6 1015.6 1015.5 0.0
29/01:30am 9.8 7.7 8.1 89 0.8 SSW 9 11 5 6 1015.6 1015.5 0.0
29/01:00am 10.2 8.1 8.1 87 1.0 SSW 9 13 5 7 1015.8 1015.7 0.0
29/12:30am 10.1 8.0 8.4 89 0.8 SSW 9 9 5 5 1016.0 1016.0 0.0
29/12:00am 10.3 8.3 8.7 90 0.8 SSW 9 13 5 7 1016.4 1016.4 0.0
 
Date/Time
EDT
Temp
°C
App
Temp
°C
Dew
Point
Rel
Hum
%
Delta-T
°C
Wind Press
QNH
hPa
Press
MSL
hPa
Rain
since 9 am
mm
Dir
 
Spd
km/h
Gust
km/h
Spd
kts
Gust
kts
28/11:30pm 10.8 8.9 9.1 89 0.8 SSW 9 11 5 6 1016.7 1016.7 0.0
28/11:00pm 10.6 8.7 8.9 89 0.8 SSW 9 13 5 7 1017.2 1017.2 0.0
28/10:30pm 11.0 8.8 9.3 89 0.8 SSW 11 13 6 7 1017.6 1017.6 0.0
28/10:00pm 11.7 10.4 9.8 88 1.0 SSW 7 11 4 6 1018.0 1018.0 0.0
28/09:30pm 12.1 10.8 9.1 82 1.5 S 6 7 3 4 1018.0 1018.0 0.0
28/09:00pm 13.6 12.2 9.5 76 2.1 NE 7 9 4 5 1018.1 1018.1 0.0
28/08:30pm 13.4 12.3 9.8 79 1.8 SE 6 9 3 5 1018.1 1018.1 0.0
28/08:00pm 12.9 11.7 9.4 79 1.8 ESE 6 7 3 4 1018.1 1018.1 0.0
28/07:30pm 13.5 11.7 9.6 77 2.0 SE 9 11 5 6 1018.0 1018.0 0.0
28/07:00pm 13.7 11.8 9.0 73 2.4 ESE 9 13 5 7 1017.9 1017.9 0.0
28/06:30pm 14.7 12.9 9.5 71 2.7 SE 9 11 5 6 1018.0 1018.0 0.0
28/06:00pm 14.8 12.3 9.6 71 2.7 ESE 13 17 7 9 1017.9 1017.9 0.0
28/05:30pm 15.3 12.5 9.9 70 2.8 ESE 15 22 8 12 1017.9 1017.9 0.0
28/05:00pm 15.7 12.4 9.6 67 3.2 ESE 17 20 9 11 1017.9 1017.9 0.0
28/04:30pm 16.5 13.4 8.7 60 4.0 ESE 15 19 8 10 1018.0 1018.0 0.0
28/04:00pm 16.8 14.7 9.7 63 3.7 ESE 11 13 6 7 1018.1 1018.1 0.0
28/03:30pm 16.8 15.3 9.0 60 4.0 E 7 9 4 5 1018.3 1018.3 0.0
28/03:00pm 16.5 14.8 8.2 58 4.2 ENE 7 9 4 5 1018.6 1018.6 0.0
28/02:30pm 17.1 15.3 8.0 55 4.6 NNE 7 9 4 5 1018.8 1018.8 0.0
28/02:00pm 16.4 14.3 8.1 58 4.2 NNE 9 13 5 7 1019.2 1019.2 0.0
28/01:30pm 16.2 14.4 7.9 58 4.2 NNE 7 11 4 6 1019.5 1019.5 0.0
28/01:00pm 16.0 14.3 7.5 57 4.2 NE 6 7 3 4 1019.9 1019.9 0.0
28/12:30pm 14.9 12.9 7.2 60 3.8 NE 7 11 4 6 1020.3 1020.3 0.0
28/12:00pm 14.8 12.8 7.1 60 3.8 N 7 13 4 7 1020.6 1020.6 0.0
28/11:30am 15.2 12.9 7.5 60 3.8 WSW 9 17 5 9 1020.8 1020.8 0.0
28/11:00am 14.7 12.6 6.8 59 3.8 W 7 9 4 5 1021.0 1021.0 0.0
28/10:30am 14.0 12.2 7.1 63 3.4 N 6 9 3 5 1021.2 1021.2 0.0
28/10:00am 13.5 11.1 7.1 65 3.1 NW 9 13 5 7 1021.3 1021.3 0.0
28/09:30am 13.5 11.1 6.8 64 3.2 NW 9 13 5 7 1021.0 1021.0 0.0
28/09:00am 13.2 10.8 7.0 66 3.0 W 9 13 5 7 1021.0 1021.0 7.2
28/08:30am 12.8 10.0 6.8 67 2.9 WNW 11 17 6 9 1020.9 1020.9 7.2
28/08:00am 11.3 9.3 7.0 75 2.0 SW 7 11 4 6 1020.8 1020.8 7.2
28/07:30am 10.3 8.2 5.7 73 2.1 WSW 6 9 3 5 1020.7 1020.7 7.2
28/07:00am 10.9 8.3 5.9 71 2.3 W 9 13 5 7 1020.6 1020.6 7.2
28/06:30am 11.4 6.9 6.1 70 2.5 WSW 19 22 10 12 1020.4 1020.4 7.2
28/06:00am 11.5 7.9 6.6 72 2.3 WSW 15 22 8 12 1020.4 1020.4 7.2
28/05:30am 12.1 7.8 7.0 71 2.4 WSW 19 24 10 13 1020.1 1020.1 7.2
28/05:00am 12.3 8.2 7.8 74 2.2 WSW 19 24 10 13 1019.9 1019.9 7.2
28/04:30am 12.4 8.3 7.7 73 2.3 W 19 24 10 13 1020.0 1020.0 7.2
28/04:00am 12.4 8.0 7.5 72 2.4 WSW 20 24 11 13 1020.0 1020.0 7.2
28/03:30am 12.6 8.9 8.1 74 2.2 WSW 17 22 9 12 1020.1 1020.1 7.2
28/03:00am 12.5 9.7 8.4 76 2.0 WSW 13 19 7 10 1020.3 1020.3 7.2
28/02:30am 12.4 8.8 8.5 77 1.9 W 17 20 9 11 1020.3 1020.3 7.2
28/02:00am 12.2 10.6 8.7 79 1.7 SW 7 17 4 9 1020.5 1020.5 7.2
28/01:30am 12.2 10.3 8.9 80 1.6 SW 9 15 5 8 1020.3 1020.3 7.2
28/01:00am 12.2 10.3 9.0 81 1.6 SW 9 15 5 8 1020.3 1020.3 7.2
28/12:30am 11.8 10.4 9.7 87 1.1 SSW 7 11 4 6 1020.2 1020.2 7.2
28/12:00am 12.2 10.5 9.9 86 1.2 SSW 9 13 5 7 1020.2 1020.2 7.2
 
Date/Time
EDT
Temp
°C
App
Temp
°C
Dew
Point
Rel
Hum
%
Delta-T
°C
Wind Press
QNH
hPa
Press
MSL
hPa
Rain
since 9 am
mm
Dir
 
Spd
km/h
Gust
km/h
Spd
kts
Gust
kts
27/11:30pm 12.1 9.6 9.8 86 1.2 SSW 13 19 7 10 1020.2 1020.2 7.2
27/11:00pm 12.1 9.7 10.2 88 1.0 SSW 13 19 7 10 1020.3 1020.3 7.2
27/10:30pm 12.1 9.8 10.5 90 0.8 SSW 13 20 7 11 1020.1 1020.1 7.2
27/10:00pm 12.3 10.1 10.7 90 0.8 SSW 13 24 7 13 1020.0 1020.0 6.6
27/09:30pm 12.8 11.0 11.0 89 0.9 SSW 11 17 6 9 1019.8 1019.8 6.2
27/09:00pm 13.1 10.9 10.8 86 1.2 SW 13 17 7 9 1019.5 1019.5 6.0
27/08:30pm 13.0 11.2 10.7 86 1.2 SSW 11 17 6 9 1019.2 1019.2 6.0
27/08:00pm 13.0 10.7 10.4 84 1.3 SSW 13 20 7 11 1018.8 1018.8 6.0
27/07:30pm 12.6 9.8 10.1 85 1.3 SSW 15 20 8 11 1018.4 1018.4 6.0
27/07:00pm 13.1 10.7 10.1 82 1.5 SSW 13 19 7 10 1017.9 1017.9 5.8
27/06:30pm 13.0 9.9 10.2 83 1.4 SSW 17 24 9 13 1017.4 1017.4 5.8
27/06:00pm 12.7 9.1 10.4 86 1.2 SSW 20 37 11 20 1017.1 1017.1 5.8
27/05:30pm 12.3 9.0 10.9 91 0.7 SSW 19 30 10 16 1016.9 1016.9 5.8
27/05:00pm 12.2 8.2 10.6 90 0.8 SSW 22 35 12 19 1016.5 1016.5 5.6

Other Formats:

Comma delimited format used in spreadsheet applications
http://www.bom.gov.au/fwo/IDT60801/IDT60801.94988.axf

JavaScript Object Notation format (JSON) in row-major order
http://www.bom.gov.au/fwo/IDT60801/IDT60801.94988.json